Miscellaneous Local Product
Issued by NWS Hastings, NE

Home | Current Version | Previous Version | Graphics & Text | Print | Product List | Glossary On
Versions: 1 2 3 4 5 6 7 8 9 10 11 12 13 14 15 16 17 18 19 20 21 22 23 24 25 26 27 28 29 30 31 32 33 34 35 36 37 38 39 40 41 42 43 44 45 46 47 48 49 50
000
AXUS43 KGID 121002
MISGRI

GID CWA HOURLY WEATHER ROUNDUP
NATIONAL WEATHER SERVICE HASTINGS NE
500 AM CDT SAT JUL 12 2014

NOTE: "FAIR" INDICATES FEW OR NO CLOUDS BELOW 12,000 FEET WITH NO
SIGNIFICANT WEATHER AND/OR OBSTRUCTIONS TO VISIBILITY.

...SOUTH CENTRAL NEBRASKA...

CITY           SKY/WX    TMP DP  RH WIND       PRES   REMARKS
GRAND ISLAND   CLOUDY    72  67  84 VRB5      30.02R
HASTINGS       CLOUDY    72  62  71 CALM      30.01R
KEARNEY        CLOUDY    73  61  64 CALM      30.02S
ORD            LGT RAIN  68  66  93 E12       30.01F
YORK           CLOUDY    70  68  94 E5        30.02S
AURORA         CLOUDY    73  68  82 CALM      30.01S
LEXINGTON      CLOUDY    73  71  92 E13       30.01S
HOLDREGE       CLOUDY    73  59  61 SW6       30.00S
HEBRON         CLOUDY    76  64  67 SW6       30.00S

...NEBRASKA PANHANDLE...

CITY           SKY/WX    TMP DP  RH WIND       PRES   REMARKS
CHADRON        CLOUDY    63  60  90 W5        30.12S
ALLIANCE       MOCLDY    59  58  96 W8        30.10F
SCOTTSBLUFF    MOCLDY    61  59  93 W5        30.14F
SIDNEY         CLOUDY    64  61  90 NW10      30.14S

...WESTERN AND NORTH CENTRAL NEBRASKA...

CITY           SKY/WX    TMP DP  RH WIND       PRES   REMARKS
VALENTINE      CLOUDY    67  64  90 NW5       30.03F
AINSWORTH      CLOUDY    67  66  99 CALM      30.02F
ONEILL         LGT RAIN  67  63  87 E12       30.01F
BROKEN BOW     CLOUDY    68  66  93 SE8       30.01F
IMPERIAL       CLOUDY    70  67  90 N3        30.06F
NORTH PLATTE   CLOUDY    67  64  90 CALM      30.02S
MCCOOK         CLOUDY    72  69  90 N5        30.01S

...EASTERN NEBRASKA...

CITY           SKY/WX    TMP DP  RH WIND       PRES   REMARKS
NORFOLK        LGT RAIN  69  66  90 N6        30.05R
SO SIOUX CITY  LGT RAIN  70  68  93 E8        30.04F
TEKAMAH        CLOUDY    71  68  90 NE9       30.04R
ALBION         LGT RAIN  68  67  94 NE3       30.05F
OMAHA EPPLEY   CLOUDY    75  68  78 VRB3      30.03R
OFFUTT AFB     CLOUDY    75  75 100 NE7       30.02R
MILLARD        CLOUDY    75  72  90 CALM      30.02S
LINCOLN        CLOUDY    75  68  78 N6        30.02R
NEBRASKA CITY  CLOUDY    74  67  79 CALM      30.02R
BEATRICE       CLOUDY    74  64  71 S3        30.00S
FALLS CITY     CLOUDY    77  69  76 S7        30.00S

...NORTHERN KANSAS...

CITY           SKY/WX    TMP DP  RH WIND       PRES   REMARKS
GOODLAND       MOCLDY    66  61  84 NW9       30.09R
HILL CITY      MOCLDY    72  59  63 SW7       30.00F
NORTON         SUNNY     70  55  60 SW5       30.00S
PHILLIPSBURG   CLEAR     70  59  68 SE5       30.00S
SMITH CENTER   CLEAR     72  63  73 SW5       30.01S
BELOIT         CLEAR     70  61  73 S5        30.01R
HAYS           PTCLDY    72  55  56 S6        30.03R
RUSSELL        PTCLDY    71  63  75 S12       30.01S
CONCORDIA      MOCLDY    75  63  66 S14       30.00S
SALINA         PTCLDY    74  63  68 S8        30.02S
TOPEKA         PTCLDY    79  67  66 S6        30.04S



USA.gov is the U.S. government's official web portal to all federal, state and local government web resources and services.